{"data":{"norad_id":65184,"intl_designator":"2025-175L","name":"STARLINK-34947","alt_names":[],"object_type":"PAYLOAD","status":"ACTIVE","operator":null,"country":"US","launch_date":"2025-08-14","launch_site_code":"AFWTR","launch_vehicle":null,"mission":null,"orbit_class":"UNKNOWN","rcs_meters":null,"size_class":null,"mass_kg":null,"dimensions":null,"purposes":["comms"],"wikipedia_slug":null,"has_3d_model":false,"image_url":null,"decayed_at":null,"tle_current":{"epoch":"2026-05-25T03:25:59.189952Z","epoch_age_seconds":65969,"freshness":"FRESH","line1":"1 65184U 25175L   26145.14304618  .00016062  00000+0  11149-2 0  9991","line2":"2 65184  97.4496  17.6257 0001864  96.7043 263.4397 15.05642841 44144","mean_motion":15.05642841,"eccentricity":0.0001864,"inclination_deg":97.4496,"raan_deg":17.6257,"arg_perigee_deg":96.7043,"mean_anomaly_deg":263.4397,"bstar":0.0011149,"rev_number":4414,"period_min":95.640211661592,"perigee_km":548.24179593968,"apogee_km":550.82443135805,"semimajor_km":6927.6701136489,"source":"CELESTRAK","updated_at":"2026-05-25T13:38:20.713214Z"}}}